CALSPHERE 1 1 00900U 64063C 26207.62775906 .00000563 00000+0 56321-3 0 9990 2 00900 90.2200 72.6929 0025385 168.1342 221.4479 13.76661311 76857 CALSPHERE 2 1 00902U 64063E 26207.59951384 .00000063 00000+0 81030-4 0 9995 2 00902 90.2328 76.7340 0020470 110.6337 311.0873 13.52902879861596 LCS 1 1 01361U 65034C 26207.65398951 -.00000001 00000+0 -11751-2 0 9991 2 01361 32.1419 83.3114 0012323 262.1525 97.7574 9.89310669213799 TEMPSAT 1 1 01512U 65065E 26207.47158478 .00000054 00000+0 89151-4 0 9998 2 01512 89.9981 212.5950 0071074 137.1446 16.0515 13.33596044965280 CALSPHERE 4A 1 01520U 65065H 26207.53421775 .00000078 00000+0 13326-3 0 9993 2 01520 89.8984 122.1007 0070137 354.3844 59.4770 13.36284792967962 OPS 5712 (P/L 160) 1 02826U 67053A 26207.64083359 .00007237 00000+0 10063-2 0 9994 2 02826 69.9179 301.5545 0003032 298.5389 61.5453 14.78204567 72069 OPS 5712 (P/L 153) 1 02874U 67053H 26207.57996896 .00000057 00000+0 79348-4 0 9994 2 02874 69.9738 30.8693 0006202 164.6724 195.4571 13.96833873 12291 RIGIDSPHERE 2 (LCS 4) 1 05398U 71067E 26207.58052817 .00000801 00000+0 25335-3 0 9998 2 05398 87.6247 327.8718 0062183 101.9400 258.8780 14.37915349879549 COSMOS 2493 (SKRL-756 1) 1 39490U 13078A 26207.58406801 .00003529 00000+0 26447-3 0 9997 2 39490 82.4100 222.6378 0014632 108.7784 251.5030 15.02331740683877 COSMOS 2494 (SKRL-756 2) 1 39491U 13078B 26207.51095519 .00003268 00000+0 22727-3 0 9998 2 39491 82.4104 211.9336 0017486 74.0828 286.2324 15.05068727684722